�������r�C�����j�^�v���󋵏��
Date,Time,5�C6���@���p�r�C��,����,����(m/s)
2021/07/11,00:00,3.9,��쓌,0.8
2021/07/11,00:10,3.9,-,CALM
2021/07/11,00:20,4.1,�k�k��,0.6
2021/07/11,00:30,4.0,-,CALM
2021/07/11,00:40,3.9,-,CALM
2021/07/11,00:50,3.8,-,CALM
2021/07/11,01:00,3.9,-,CALM
2021/07/11,01:10,3.8,�쓌,0.6
2021/07/11,01:20,3.9,�쓌,0.6
2021/07/11,01:30,3.9,���쓌,0.9
2021/07/11,01:40,3.9,���쓌,0.6
2021/07/11,01:50,3.9,�쓌,0.9
2021/07/11,02:00,3.7,-,CALM
2021/07/11,02:10,3.9,-,CALM
2021/07/11,02:20,3.9,�k��,0.6
2021/07/11,02:30,3.8,�쓌,0.6
2021/07/11,02:40,3.6,-,CALM
2021/07/11,02:50,3.9,�k�k��,0.8
2021/07/11,03:00,3.8,-,CALM
2021/07/11,03:10,3.9,�k�k��,0.8
2021/07/11,03:20,4.0,�k,0.9
2021/07/11,03:30,3.9,-,CALM
2021/07/11,03:40,3.9,-,CALM
2021/07/11,03:50,3.9,-,CALM
2021/07/11,04:00,3.9,�k�k��,0.6
2021/07/11,04:10,3.8,��쐼,1.1
2021/07/11,04:20,3.9,��,0.6
2021/07/11,04:30,4.0,�쐼,0.8
2021/07/11,04:40,3.9,��쓌,0.8
2021/07/11,04:50,3.9,�쐼,0.6
2021/07/11,05:00,3.9,�쐼,0.6
2021/07/11,05:10,3.8,��쐼,0.9
2021/07/11,05:20,3.9,��,0.6
2021/07/11,05:30,3.9,��쐼,0.9
2021/07/11,05:40,3.9,��,1.7
2021/07/11,05:50,3.8,��,1.7
2021/07/11,06:00,3.9,��쐼,1.4
2021/07/11,06:10,4.0,��쐼,1.2
2021/07/11,06:20,3.9,��쐼,0.9
2021/07/11,06:30,3.9,-,CALM
2021/07/11,06:40,4.0,-,CALM
2021/07/11,06:50,4.0,���k��,0.6
2021/07/11,07:00,3.7,�k,0.6
2021/07/11,07:10,4.0,��,0.9
2021/07/11,07:20,3.9,��,0.6
2021/07/11,07:30,3.9,-,CALM
2021/07/11,07:40,3.9,-,CALM
2021/07/11,07:50,3.9,��쓌,0.6
2021/07/11,08:00,3.9,��쓌,0.9
2021/07/11,08:10,3.8,�쓌,1.4
2021/07/11,08:20,3.9,���쓌,0.9
2021/07/11,08:30,3.9,�쓌,1.4
2021/07/11,08:40,4.1,�쓌,1.4
2021/07/11,08:50,4.0,���쓌,0.6
2021/07/11,09:00,4.0,��쓌,0.9
2021/07/11,09:10,3.9,��쓌,1.7
2021/07/11,09:20,4.0,��쓌,1.9
2021/07/11,09:30,3.8,��,1.9
2021/07/11,09:40,4.0,��쐼,2.5
2021/07/11,09:50,4.1,�쐼,1.4
2021/07/11,10:00,4.0,-,CALM
2021/07/11,10:10,3.8,���k��,0.9
2021/07/11,10:20,3.9,��,0.9
2021/07/11,10:30,3.7,��쓌,0.6
2021/07/11,10:40,3.9,���k��,0.9
2021/07/11,10:50,3.7,�k�k��,2.0
2021/07/11,11:00,4.1,�k,0.9
2021/07/11,11:10,3.7,�k��,1.9
2021/07/11,11:20,4.0,�k�k��,1.2
2021/07/11,11:30,3.7,���쓌,1.5
2021/07/11,11:40,3.9,�쓌,1.8
2021/07/11,11:50,3.9,�쓌,2.6
2021/07/11,12:00,3.9,��,2.6
2021/07/11,12:10,3.8,��,3.1
2021/07/11,12:20,4.1,��,3.7
2021/07/11,12:30,3.8,��,3.5
2021/07/11,12:40,3.9,��,3.2
2021/07/11,12:50,3.9,��,2.9
2021/07/11,13:00,3.9,��,1.5
2021/07/11,13:10,3.8,��,1.7
2021/07/11,13:20,3.8,��쓌,2.0
2021/07/11,13:30,3.9,��쐼,1.7
2021/07/11,13:40,3.9,��쐼,1.5
2021/07/11,13:50,3.7,���쐼,1.2
2021/07/11,14:00,3.8,���쐼,0.8
2021/07/11,14:10,3.9,��쐼,0.9
2021/07/11,14:20,3.9,��,2.0
2021/07/11,14:30,3.7,��,1.9
2021/07/11,14:40,3.9,��쐼,1.2
2021/07/11,14:50,3.7,��쓌,2.6
2021/07/11,15:00,3.8,��,2.6
2021/07/11,15:10,4.1,��,3.4
2021/07/11,15:20,3.8,��,3.1
2021/07/11,15:30,4.0,��,4.1
2021/07/11,15:40,3.7,�쐼,2.6
2021/07/11,15:50,3.9,��쐼,2.0
2021/07/11,16:00,4.0,��쐼,0.9
2021/07/11,16:10,4.1,-,CALM
2021/07/11,16:20,4.0,���k��,0.8
2021/07/11,16:30,3.8,�k�k��,0.6
2021/07/11,16:40,3.9,�k,1.2
2021/07/11,16:50,4.0,�k,2.5
2021/07/11,17:00,3.7,�k�k��,1.7
2021/07/11,17:10,3.9,�k�k��,2.2
2021/07/11,17:20,3.8,�쐼,1.4
2021/07/11,17:30,3.8,��,1.4
2021/07/11,17:40,3.8,�k��,1.1
2021/07/11,17:50,3.8,�k�k��,2.6
2021/07/11,18:00,3.8,�k��,4.0
2021/07/11,18:10,3.9,�k��,3.2
2021/07/11,18:20,3.9,�k��,3.6
2021/07/11,18:30,4.0,�k��,3.5
2021/07/11,18:40,3.8,�k��,3.3
2021/07/11,18:50,3.8,�k��,1.7
2021/07/11,19:00,3.8,�k��,1.2
2021/07/11,19:10,3.8,�k��,1.9
2021/07/11,19:20,4.0,���k��,1.2
2021/07/11,19:30,3.9,�k��,1.4
2021/07/11,19:40,3.8,�k��,1.5
2021/07/11,19:50,4.0,���k��,2.0
2021/07/11,20:00,3.9,���쐼,2.2
2021/07/11,20:10,3.8,���쐼,2.3
2021/07/11,20:20,3.9,�쐼,1.2
2021/07/11,20:30,3.8,�쐼,1.5
2021/07/11,20:40,3.8,�쐼,2.0
2021/07/11,20:50,3.9,��쐼,2.5
2021/07/11,21:00,3.7,��,3.1
2021/07/11,21:10,3.8,��쐼,2.8
2021/07/11,21:20,3.9,��,2.3
2021/07/11,21:30,3.9,��,1.5
2021/07/11,21:40,3.9,��,2.0
2021/07/11,21:50,3.9,��,2.3
2021/07/11,22:00,4.1,��쓌,1.5
2021/07/11,22:10,3.8,�쓌,1.7
2021/07/11,22:20,3.8,��,1.5
2021/07/11,22:30,3.7,��쐼,1.7
2021/07/11,22:40,3.9,��쐼,2.3
2021/07/11,22:50,3.9,��쐼,3.4
2021/07/11,23:00,3.9,��쐼,3.2
2021/07/11,23:10,4.0,�쐼,3.6
2021/07/11,23:20,3.8,��쐼,3.1
2021/07/11,23:30,3.8,��쐼,3.2
2021/07/11,23:40,3.9,��쐼,2.9
2021/07/11,23:50,3.9,��쐼,1.9
